[[{"header":{"parameterUnit":"m.s-1","parameterCategory":1,"la1":30.2991,"la2":30.254,"lo1":-89.0895,"lo2":-89.0444,"dy":0.0017,"dx":0.0017,"nx":28,"ny":28,"refTime":"2024-04-17T03:00:00:Z","depth":0,"parameterNumber":2,"parameterNumberName":"U-component_of_WINDS"},"data":[0,0,0,0,0,0,0,0,0,0,0,0,0,0,0,0,0,0,0,0,0,0,0,0,0,0,0,0,0,0,0,0,0,0,0,0,0,0,0,0,0,0,0,0,0,0,0,0,0,0,0,0,0,0,0,0,0,0,-1.0068,-1.0067,0,-1.0036,-1.0036,-1.0036,-1.0014,-1.0014,-1.0014,-1.0014,-0.9982,-0.9981,-0.998,0,0,0,0,0,0,0,0,0,0,0,0,0,-1.0109,-1.0109,-1.0068,-1.0067,-1.0067,-1.0036,-1.0036,-1.0036,-1.0014,-1.0014,-1.0014,-1.0014,-0.9982,-0.9981,-0.998,0,0,0,0,0,0,0,0,0,0,0,0,0,-1.0086,-1.0108,-1.0068,-1.0052,-1.0051,-1.0037,-1.0036,-1.0035,-1.0014,-1.0014,-1.0014,-1.0014,-0.9982,-0.9981,-0.998,-0.9979,0,0,-0.9977,-0.9977,0,0,0,0,0,0,0,0,-1.0087,-1.0084,-1.0055,-1.0054,-1.0052,-1.0029,-1.0039,-1.0016,-1.0014,-1.0028,-1.0014,-1.0013,-0.9998,-0.9995,-0.999,-0.9977,-0.9976,-0.9977,-0.9976,-0.9976,-0.9976,0,0,0,0,0,0,0,-1.0089,-1.0086,-1.0055,-1.0055,-1.0053,-1.0047,-1.0044,-1.0035,-1.0015,-1.0027,-1.0025,-1.0022,-0.9997,-0.9991,-0.9989,-0.9975,-0.9977,-0.9976,-0.9975,-0.9975,-0.996,-0.996,0,0,0,0,0,0,-1.0093,-1.0087,-1.0056,-1.0054,-1.0069,-1.0047,-1.0043,-1.0036,-1.0015,-1.0011,-1.0022,-1.0021,-0.9993,-0.999,-0.9988,-0.9984,-0.9976,-0.9975,-0.9974,-0.9959,-0.996,-0.996,0,0,0,0,0,0,-1.0094,-1.009,-1.0057,-1.007,-1.0066,-1.0046,-1.0039,-1.0036,-1.003,-1.0011,-1.0007,-1.002,-0.9993,-0.9989,-0.9981,-0.9983,-0.9974,-0.9973,-0.9959,-0.996,-0.996,-0.9978,0,0,0,0,0,0,-1.0095,-1.0091,-1.009,-1.007,-1.0065,-1.0051,-1.004,-1.0036,-1.0029,-1.0027,-1.0008,-1.0005,-0.9992,-0.9983,-0.998,-0.9981,-0.9973,-0.9959,-0.9959,-0.996,-0.9977,-0.9979,-0.998,0,0,0,0,0,-1.0097,-1.0096,-1.009,-1.0086,-1.0063,-1.0051,-1.0048,-1.0034,-1.0029,-1.0028,-1.0016,-1.0005,-0.9984,-0.9982,-0.9979,-0.998,-0.9959,-0.9959,-0.996,-0.9976,-0.9978,-0.998,0,0,0,0,0,0,-1.0116,-1.0093,-1.0086,-1.0079,-1.0067,-1.0048,-1.0046,-1.0037,-1.0026,-1.0025,-1.0007,-1.0003,-0.9997,-0.9988,-0.9987,-0.9977,-0.997,-0.997,-0.9983,-0.9985,-0.9987,-0.9989,-0.9972,0,0,0,0,0,-1.0119,-1.0111,-1.0092,-1.0088,-1.0082,-1.0065,-1.0059,-1.0049,-1.0036,-1.0031,-1.0018,-1.0006,-0.9997,-0.9991,-0.9981,-0.9976,-0.9971,-0.9975,-0.9977,-0.9978,-0.9978,-0.9975,-0.9976,-0.9962,-0.9962,-0.9962,0,0,-1.0126,-1.0113,-1.0109,-1.0091,-1.0081,-1.0073,-1.0061,-1.0053,-1.0047,-1.003,-1.0021,-1.0012,-0.9997,-0.999,-0.9987,-0.9983,-0.9981,-0.9979,-0.998,-0.9979,-0.9975,-0.9977,-0.9978,-0.9962,-0.9962,-0.9962,0,0,-1.0135,-1.0124,-1.0119,-1.0109,-1.0094,-1.0083,-1.0082,-1.0064,-1.0056,-1.0048,-1.0035,-1.0028,-1.0011,-1.0001,-0.9994,-1.0,-0.9991,-0.9998,-1.0006,-1.0003,-1.0004,-1.0005,-1.0007,-1.0008,-0.9998,-0.9998,-0.9998,0,-1.0146,-1.0133,-1.0118,-1.0111,-1.0104,-1.0088,-1.0083,-1.0074,-1.0057,-1.0052,-1.0048,-1.0027,-1.0016,-1.0007,-1.0009,-1.0004,-1.0002,-0.9999,-1.0005,-1.0006,-1.0007,-1.0008,-1.0009,-0.9999,-0.9999,-0.9998,-0.9998,0,-1.0147,-1.0138,-1.0136,-1.012,-1.0112,-1.0106,-1.0091,-1.0085,-1.0076,-1.0065,-1.0057,-1.0043,-1.0031,-1.0028,-1.0019,-1.0018,-1.0015,-1.0008,-1.0,-1.0009,-1.001,-1.0011,-1.0,-1.0,-0.9999,-0.9999,0,0,-1.0166,-1.0141,-1.0141,-1.0133,-1.0115,-1.0109,-1.0102,-1.009,-1.0085,-1.0074,-1.0068,-1.0055,-1.0049,-1.0041,-1.0031,-1.0028,-1.0034,-1.0021,-1.0021,-1.0024,-1.0032,-1.0037,-1.0038,-1.0028,-1.0028,-1.0028,-1.0033,0,-1.0171,-1.0159,-1.0145,-1.0138,-1.013,-1.0115,-1.011,-1.0099,-1.0089,-1.0081,-1.007,-1.0061,-1.0053,-1.0048,-1.0045,-1.0034,-1.0035,-1.0033,-1.0022,-1.0022,-1.0025,-1.0038,-1.0043,-1.0049,-1.0033,-1.0033,-1.0033,0,-1.0176,-1.0165,-1.0157,-1.014,-1.0136,-1.0131,-1.0119,-1.0112,-1.0099,-1.0092,-1.0084,-1.0073,-1.0066,-1.0059,-1.0049,-1.0048,-1.0043,-1.0037,-1.0037,-1.0035,-1.0028,-1.0036,-1.005,-1.0051,-1.0034,-1.0034,-1.0034,0,-1.0191,-1.0174,-1.0167,-1.0161,-1.0141,-1.0138,-1.013,-1.0117,-1.011,-1.01,-1.0095,-1.0084,-1.0078,-1.007,-1.0056,-1.0053,-1.0048,-1.004,-1.0042,-1.0042,-1.0041,-1.0041,-1.0054,-1.0038,-1.0038,-1.0038,-1.0038,0,-1.0198,-1.0193,-1.0173,-1.0169,-1.0163,-1.0148,-1.0143,-1.0134,-1.0122,-1.0116,-1.0103,-1.0097,-1.008,-1.0073,-1.0062,-1.0055,-1.0053,-1.0047,-1.0044,-1.0048,-1.0049,-1.0044,-1.0043,-1.0038,-1.0038,-1.0038,-1.0038,0,-1.0213,-1.0199,-1.019,-1.0173,-1.0168,-1.0165,-1.015,-1.0145,-1.0135,-1.0127,-1.0124,-1.0108,-1.0098,-1.0085,-1.0071,-1.0064,-1.0058,-1.0054,-1.0063,-1.0061,-1.0063,-1.0063,-1.0073,-1.0073,-1.0058,-1.0058,-1.0059,0,-1.0219,-1.0215,-1.0196,-1.0191,-1.0183,-1.0175,-1.0168,-1.0154,-1.0147,-1.0133,-1.013,-1.0119,-1.011,-1.0095,-1.0082,-1.0072,-1.0067,-1.0071,-1.0065,-1.0069,-1.0067,-1.0067,-1.0066,-1.0072,-1.0073,-1.0073,-1.0073,0,-1.023,-1.0223,-1.0214,-1.0202,-1.0195,-1.0185,-1.0175,-1.0171,-1.0154,-1.0148,-1.0138,-1.0131,-1.0117,-1.0107,-1.0095,-1.0086,-1.0077,-1.0075,-1.0075,-1.0078,-1.0083,-1.008,-1.0066,-1.0075,-1.0074,-1.0074,-1.0074,-1.0074,-1.024,-1.0236,-1.0222,-1.0212,-1.0203,-1.0194,-1.0189,-1.0178,-1.0169,-1.0156,-1.0149,-1.0139,-1.0127,-1.0109,-1.0101,-1.0094,-1.009,-1.009,-1.0089,-1.0089,-1.0091,-1.0085,-1.0092,-1.0092,-1.0091,-1.0091,-1.0091,0,-1.025,-1.0241,-1.0232,-1.0218,-1.021,-1.0202,-1.0191,-1.0185,-1.0176,-1.0166,-1.0157,-1.0146,-1.0136,-1.0122,-1.0111,-1.0108,-1.0103,-1.0105,-1.0105,-1.0103,-1.0095,-1.0096,-1.0109,-1.0109,-1.0109,-1.0109,-1.0109,-1.0109,-1.0254,-1.0247,-1.0239,-1.0227,-1.0217,-1.0208,-1.0202,-1.0193,-1.0185,-1.0172,-1.0164,-1.0155,-1.0144,-1.0132,-1.0122,-1.0119,-1.0115,-1.0119,-1.0114,-1.0106,-1.0104,-1.0102,-1.0103,-1.0118,-1.0118,-1.0123,-1.0123,-1.0123]},{"header":{"parameterUnit":"m.s-1","parameterCategory":1,"la1":30.2991,"la2":30.254,"lo1":-89.0895,"lo2":-89.0444,"dy":0.0017,"dx":0.0017,"nx":28,"ny":28,"refTime":"2024-04-17T03:00:00:Z","depth":0,"parameterNumber":3,"parameterNumberName":"V-component_of_WINDS"},"data":[0,0,0,0,0,0,0,0,0,0,0,0,0,0,0,0,0,0,0,0,0,0,0,0,0,0,0,0,0,0,0,0,0,0,0,0,0,0,0,0,0,0,0,0,0,0,0,0,0,0,0,0,0,0,0,0,0,0,4.3049,4.3048,0,4.3007,4.3006,4.3006,4.291,4.2908,4.2906,4.2904,4.2865,4.2865,4.2866,0,0,0,0,0,0,0,0,0,0,0,0,0,4.305,4.305,4.3049,4.3048,4.3048,4.3007,4.3006,4.3006,4.291,4.2908,4.2906,4.2903,4.2864,4.2865,4.2866,0,0,0,0,0,0,0,0,0,0,0,0,0,4.3033,4.305,4.3049,4.2995,4.299,4.3007,4.3006,4.3006,4.2911,4.2908,4.2905,4.2902,4.2864,4.2865,4.2866,4.2933,0,0,4.287,4.2871,0,0,0,0,0,0,0,0,4.3034,4.3033,4.3004,4.2999,4.2993,4.2961,4.2992,4.2982,4.2912,4.2941,4.2904,4.2901,4.2899,4.2897,4.2896,4.2932,4.293,4.287,4.2871,4.2871,4.2872,0,0,0,0,0,0,0,4.3035,4.3034,4.3032,4.3003,4.2997,4.2974,4.2969,4.299,4.2938,4.2938,4.2931,4.2927,4.2896,4.2895,4.2894,4.2929,4.287,4.2871,4.2872,4.2872,4.3018,4.3021,0,0,0,0,0,0,4.3044,4.3036,4.3034,4.3031,4.3006,4.2977,4.297,4.2974,4.2937,4.2928,4.293,4.2923,4.2895,4.2893,4.2893,4.2969,4.2871,4.2873,4.2873,4.3015,4.3019,4.3022,0,0,0,0,0,0,4.3044,4.3044,4.3035,4.3031,4.3029,4.298,4.2985,4.2975,4.2974,4.2931,4.2921,4.2939,4.2892,4.2891,4.2924,4.2966,4.2873,4.2874,4.3011,4.3016,4.3021,4.3122,0,0,0,0,0,0,4.3045,4.3045,4.3069,4.3033,4.3029,4.3067,4.2987,4.2976,4.2976,4.2967,4.2936,4.2929,4.289,4.2923,4.2925,4.2966,4.2875,4.3007,4.3013,4.3019,4.3115,4.313,4.3143,0,0,0,0,0,4.3045,4.31,4.3071,4.3071,4.3058,4.3069,4.3067,4.3021,4.298,4.3004,4.2976,4.2929,4.2961,4.2927,4.2929,4.2971,4.3004,4.3012,4.3019,4.3109,4.3127,4.3142,0,0,0,0,0,0,4.3144,4.3094,4.3061,4.3106,4.3093,4.3053,4.3082,4.3041,4.304,4.3031,4.2974,4.2968,4.3009,4.2993,4.2956,4.3034,4.2975,4.2983,4.3043,4.306,4.3074,4.3077,4.2876,0,0,0,0,0,4.3171,4.3183,4.3139,4.3183,4.3178,4.3132,4.3135,4.31,4.3084,4.3078,4.3052,4.3039,4.3046,4.3052,4.3056,4.3112,4.3105,4.3142,4.3156,4.3168,4.3175,4.3205,4.3221,4.3046,4.3046,4.3045,0,0,4.3227,4.3202,4.3213,4.3203,4.3188,4.3203,4.3127,4.3146,4.3157,4.3081,4.311,4.3091,4.3073,4.3118,4.3136,4.3106,4.3222,4.3177,4.3186,4.3188,4.3214,4.323,4.3245,4.305,4.305,4.3049,0,0,4.3337,4.3319,4.3353,4.334,4.3318,4.3287,4.3295,4.3262,4.3246,4.3274,4.3218,4.323,4.3243,4.3233,4.3229,4.3336,4.3293,4.3339,4.3412,4.3441,4.3455,4.3467,4.3506,4.352,4.3347,4.3347,4.3347,0,4.341,4.3429,4.3377,4.3399,4.3397,4.3327,4.3363,4.3353,4.3334,4.3335,4.33,4.3315,4.3298,4.334,4.3366,4.3365,4.3374,4.3342,4.3457,4.3468,4.3479,4.3515,4.353,4.3353,4.3352,4.3351,4.3351,0,4.352,4.3534,4.3565,4.3548,4.3549,4.3578,4.3531,4.3538,4.3504,4.3477,4.3507,4.3484,4.3482,4.349,4.3456,4.3527,4.3509,4.3467,4.3407,4.3502,4.3536,4.3549,4.3361,4.3359,4.3357,4.3356,0,0,4.3692,4.3645,4.3657,4.3649,4.362,4.363,4.3656,4.3654,4.3662,4.3651,4.3673,4.3686,4.3646,4.3642,4.3607,4.3633,4.372,4.3587,4.3586,4.3614,4.3798,4.383,4.3847,4.3691,4.3693,4.3695,4.38,0,4.3796,4.3837,4.379,4.3842,4.3855,4.3789,4.3812,4.3798,4.3773,4.3782,4.3755,4.3765,4.3712,4.3709,4.3731,4.3705,4.3756,4.3696,4.3712,4.3713,4.3719,4.3865,4.3899,4.3999,4.3812,4.3814,4.3816,0,4.3922,4.3917,4.3969,4.3937,4.3941,4.3962,4.3956,4.3965,4.3947,4.3928,4.3924,4.3881,4.3906,4.3847,4.3881,4.3841,4.3845,4.3833,4.3835,4.3836,4.3771,4.387,4.4029,4.4045,4.3836,4.3834,4.3833,0,4.4044,4.4049,4.4081,4.4076,4.4039,4.4056,4.4042,4.4021,4.4023,4.4018,4.4019,4.4017,4.4017,4.4018,4.3977,4.3937,4.4016,4.3953,4.4002,4.4003,4.4022,4.4022,4.4185,4.4023,4.4023,4.4023,4.4022,0,4.4165,4.42,4.4135,4.4156,4.4193,4.414,4.4179,4.4158,4.414,4.4156,4.4099,4.4116,4.406,4.407,4.4038,4.4072,4.4072,4.4058,4.4049,4.4063,4.4065,4.4066,4.4058,4.4027,4.4026,4.4025,4.4024,0,4.4307,4.4265,4.4296,4.4258,4.425,4.4279,4.4247,4.4265,4.4236,4.4257,4.4259,4.4215,4.4225,4.4183,4.4186,4.4164,4.4215,4.4194,4.4221,4.4215,4.4266,4.4262,4.4436,4.4457,4.4281,4.4283,4.4284,0,4.4387,4.4413,4.4377,4.4383,4.4372,4.4382,4.4383,4.4332,4.4336,4.4318,4.4338,4.4343,4.4344,4.4362,4.4332,4.4334,4.4313,4.4374,4.4313,4.4327,4.4315,4.4315,4.4317,4.4387,4.4389,4.4391,4.4392,0,4.4535,4.4513,4.4516,4.4513,4.4515,4.451,4.4501,4.451,4.4455,4.4462,4.4471,4.4471,4.4474,4.448,4.4475,4.4462,4.4419,4.4412,4.4423,4.4439,4.4453,4.4447,4.4256,4.4408,4.4406,4.4405,4.4404,4.4404,4.465,4.4669,4.4648,4.4653,4.4641,4.4634,4.4649,4.4622,4.4628,4.4625,4.4595,4.461,4.4592,4.4581,4.4572,4.4584,4.4555,4.4572,4.4576,4.4581,4.459,4.4451,4.4583,4.4582,4.4582,4.4581,4.4581,0,4.4795,4.4778,4.4784,4.4773,4.4778,4.4735,4.4723,4.473,4.4744,4.473,4.4732,4.4743,4.4748,4.4718,4.4719,4.4734,4.4715,4.4737,4.4736,4.4734,4.4615,4.4606,4.4753,4.4753,4.4753,4.4752,4.4752,4.4752,4.4872,4.4903,4.4879,4.4904,4.4886,4.4899,4.4896,4.489,4.4879,4.4893,4.4897,4.4876,4.4856,4.4856,4.486,4.485,4.4854,4.4883,4.4868,4.4758,4.4742,4.4726,4.4716,4.4884,4.4884,4.4985,4.4986,4.4987]}]]